Location: Cornospital
(48.0620°N, 3.3837°W)
Time: 19:14:24
(UTC+00:00)

Cosmos 2322 - Pass Details

Date: 17 June 2021
Orbit: 839 x 856 km, 71.0° (Epoch: 02 August)

Event Time Altitude Azimuth Distance (km) Brightness Sun altitude
Exits shadow 21:49:02 - 180° (S) 2,492 5.6 -11.4°
Reaches altitude 10° 21:49:10 10° 179° (S) 2,448 5.6 -11.4°
Maximum altitude 21:54:27 44° 109° (ESE) 1,142 4.1 -11.9°
Drops below altitude 10° 21:59:48 10° 38° (NE) 2,468 6.4 -12.4°
Sets 22:02:20 0° 33° (NNE) 3,408 7.2 -12.6°
